Regional Weather Roundup
Issued by NWS

Home | Current Version | Previous Version | Graphics & Text | Print | Product List | Glossary On
Versions: 1 2 3 4 5 6 7 8 9 10 11 12 13 14 15 16 17 18 19 20 21 22 23 24 25 26 27 28 29 30 31 32 33 34 35 36 37 38 39 40 41 42 43 44 45 46 47 48 49 50
000
ASUS43 KTOP 280108
RWRKS

WEATHER ROUNDUP FOR KANSAS
NATIONAL WEATHER SERVICE GOODLAND KS
700 PM CST SAT DEC 27 2014

NOTE:  "FAIR" INDICATES FEW OR NO CLOUDS BELOW 12,000 FEET WITH NO
SIGNIFICANT WEATHER AND/OR OBSTRUCTIONS TO VISIBILITY.

KSZ001>006-013>018-027>032-041>047-280200-
NORTHWEST KANSAS

CITY           SKY/WX    TMP DP  RH WIND       PRES   REMARKS
GOODLAND       CLEAR     16   9  74 SW8       30.17S
HAYS           CLEAR     21   9  58 W5        30.24F
HILL CITY      CLEAR     18  13  80 W5        30.24S
RUSSELL        CLEAR     24  17  74 W3        30.24S
$$

KSZ061>065-074>080-084>089-280200-
SOUTHWEST KANSAS

CITY           SKY/WX    TMP DP  RH WIND       PRES   REMARKS
DODGE CITY     CLEAR     25  15  66 NW7       30.23F
ELKHART          N/A     26  11  53 SE5         N/A
GARDEN CITY    FAIR      24  16  71 W3        30.22R
GREAT BEND     CLEAR     21  14  73 NW3       30.27S
LIBERAL        CLEAR     25  14  63 CALM      30.25S
PRATT          CLEAR     27  19  74 N3        30.26F
$$

KSZ066>073-081>083-090>101-280200-
SOUTHEAST KANSAS

CITY           SKY/WX    TMP DP  RH WIND       PRES   REMARKS
CHANUTE        CLEAR     29  19  66 NW8       30.27S
COFFEYVILLE    CLEAR     30  19  63 N5        30.29R
HUTCHINSON     CLEAR     25  15  66 CALM      30.28R
MEDICINE LODGE   N/A     28  17  63 NE5       30.27S
NEWTON         CLEAR     25  12  58 NW3       30.28S
PARSONS        CLEAR     27  20  75 N5        30.28S
WICHITA INTL   CLEAR     29  16  58 NW3       30.28R
WICHITA JABRA  CLEAR     24  16  71 NW5       30.28R
WICHITA MCCONL CLEAR     28  17  64 N5        30.28R
WINFIELD       CLEAR     27  20  75 NW6       30.29R
$$

KSZ007>012-019>026-033>040-048>060-102>105-280200-
NORTHEAST KANSAS

CITY           SKY/WX    TMP DP  RH WIND       PRES   REMARKS
CONCORDIA      CLEAR     22  15  75 SW5       30.26S
EMPORIA        CLEAR     25  18  74 NW7       30.26F
LAWRENCE       CLEAR     25  18  74 NW5       30.28R
MANHATTAN      CLEAR     25  18  74 W5        30.28S
MARYSVILLE     FAIR      25  19  80 W3        30.26S
OLATHE IND     FAIR      26  19  74 NW6       30.26R
OLATHE EXE     CLEAR     28  19  69 NW5       30.25R
SALINA         CLEAR     25  16  68 W3        30.29S
TOPEKA BILLARD CLEAR     28  18  66 W3        30.29R
TOPEKA FORBES  CLEAR     24  16  71 NW5       30.27R
$$


USA.gov is the U.S. government's official web portal to all federal, state and local government web resources and services.